This is the latest recevied weather packets stored in our database for station/object WW5AH-9. If no packets are shown the sender has not sent any weather packets the latest 1 day(s).
| Time | Temp. | Humidity | Pressure | Rain* | Wind** | Luminosity | Snow |
|---|---|---|---|---|---|---|---|
| 1778118665 | 11.11° C | 97% | 1015.1 hPa | 0 mm | - | 0 W/m² | - |
| 1778118361 | 11.11° C | 97% | 1015.5 hPa | 0 mm | - | 0 W/m² | - |
| 1778117754 | 11.11° C | 97% | 1014.5 hPa | 0 mm | - | 0 W/m² | - |
| 1778117451 | 11.11° C | 97% | 1014.7 hPa | 0 mm | - | 0 W/m² | - |
| 1778117148 | 11.11° C | 97% | 1014.7 hPa | 0 mm | - | 0 W/m² | - |
| 1778116844 | 11.11° C | 97% | 1014.5 hPa | 0 mm | - | 0 W/m² | - |
| 1778116542 | 11.11° C | 97% | 1014.5 hPa | 0 mm | - | 0 W/m² | - |
| 1778116238 | 11.11° C | 97% | 1014.6 hPa | 0 mm | - | 1 W/m² | - |
| 1778115932 | 11.11° C | 97% | 1014.5 hPa | 1.78 mm | - | 1 W/m² | - |
| 1778115629 | 11.11° C | 96% | 1014.5 hPa | 1.78 mm | - | 2 W/m² | - |
| 1778115327 | 11.11° C | 96% | 1014.6 hPa | 0 mm | - | 3 W/m² | - |
| 1778115023 | 11.11° C | 96% | 1014.3 hPa | 1.27 mm | - | 2 W/m² | - |
| 1778114720 | 11.11° C | 96% | 1014 hPa | 3.05 mm | - | 8 W/m² | - |
| 1778114417 | 11.11° C | 96% | 1014.1 hPa | 3.05 mm | - | 4 W/m² | - |
| 1778113808 | 11.11° C | 95% | 1014.2 hPa | 3.56 mm | - | 7 W/m² | - |
| 1778113201 | 11.11° C | 95% | 1014.3 hPa | 6.1 mm | - | 6 W/m² | - |
| 1778110168 | 11.67° C | 94% | 1012.8 hPa | 3.05 mm | - | 10 W/m² | - |
| 1778109864 | 11.67° C | 94% | 1013.4 hPa | 3.05 mm | - | 13 W/m² | - |
| 1778109560 | 11.67° C | 94% | 1013.2 hPa | 0 mm | - | 22 W/m² | - |
| 1778108955 | 11.67° C | 94% | 1013.6 hPa | 3.05 mm | - | 46 W/m² | - |
| 1778105619 | 12.22° C | 93% | 1013.6 hPa | 3.05 mm | - | 16 W/m² | - |
| 1778102275 | 12.22° C | 91% | 1013.2 hPa | 7.87 mm | - | 8 W/m² | - |
| 1778101972 | 12.78° C | 90% | 1012.7 hPa | 6.1 mm | - | 13 W/m² | - |
| 1778099851 | 13.89° C | 89% | 1012.8 hPa | 0 mm | - | 52 W/m² | - |
| 1778098335 | 13.89° C | 89% | 1012.7 hPa | 0 mm | - | 123 W/m² | - |
* Rain latest hour (hover to see other rain measurements)
** Current wind speed in m/s (hover to see current wind gust speed)